Flag for Canada Weather past 2 weeks in Toronto, Ontario, Canada

Now
57 °F

Scattered clouds.


Feels Like: 55 °F
Forecast: N/A
Wind: 9 mph from North

Location: Toronto Pearson International Airport

Current Time: Sep 18, 2014 at 4:55:19 PM

Latest Report: Sep 18, 2014 at 4:00 PM


Visibility: 15 mi

Pressure: 30.16 "Hg

Humidity: 59%

Dew point: 43 °F

Location of TorontoLocation

Historic Weather in Toronto — Graph

°F

Toronto temperature yesterday

Maximum temperature yesterday: 70 °F (at 4:00 PM)
Minimum temperature yesterday: 46 °F (at 5:00 AM)
Average temperature yesterday: 58 °F

Past Weeks' High & Low Weather Summary

 TemperatureHumidityPressure
High88 °F (Sep 5, 3:00 PM)94% (Sep 5, 10:00 PM)30.36 "Hg (Sep 5, 10:00 PM)
Low43 °F (Sep 14, 7:00 AM)41% (Sep 8, 4:00 PM)29.52 "Hg (Sep 11, 4:00 AM)
Average62 °F73%30.07 "Hg
* Reported Sep 3 3:00 PM — Sep 18 3:00 PM, Toronto, Weather by CustomWeather, © 2014

Note: Actual official high and low records may vary slightly from our data, if they occured in-between our weather recording intervals... More about our weather records

Advertising

Toronto weather history for previous 24 hours

 ConditionsComfort  
Time TempWeatherWind HumidityBarometerVisibility
3:00 PM
Sep 18
55 °FScattered clouds.10 mph63%30.16 "Hg15 mi
2:00 PM52 °FPartly sunny.8 mph72%30.17 "Hg15 mi
1:00 PM52 °FMostly cloudy.10 mph77%30.16 "Hg15 mi
12:00 PM54 °FMore clouds than sun.13 mph72%30.14 "Hg15 mi
11:00 AM52 °FOvercast.12 mph77%30.14 "Hg15 mi
10:00 AM54 °FBroken clouds.17 mph67%30.12 "Hg15 mi
9:00 AM55 °FBroken clouds.14 mph77%30.09 "Hg15 mi
8:00 AM54 °FPartly sunny.13 mph82%30.07 "Hg15 mi
7:00 AM54 °FMostly cloudy.15 mph88%30.04 "Hg15 mi
6:00 AM54 °FPassing clouds.12 mph82%30.01 "Hg15 mi
5:00 AM52 °FPassing clouds.9 mph77%30.00 "Hg15 mi
4:00 AM52 °FPassing clouds.8 mph82%29.98 "Hg15 mi
3:00 AM52 °FClear.2 mph77%29.98 "Hg15 mi
2:00 AM52 °FPassing clouds.7 mph82%29.98 "Hg15 mi
1:00 AM54 °FPassing clouds.5 mph77%29.98 "Hg15 mi
12:00 AM54 °FClear.5 mph77%29.98 "Hg15 mi
11:00 PM
Sep 17
54 °FClear.6 mph77%29.97 "Hg15 mi
10:00 PM57 °FClear.7 mph67%29.97 "Hg15 mi
9:00 PM61 °FPassing clouds.7 mph63%29.96 "Hg15 mi
8:00 PM61 °FScattered clouds.7 mph63%29.95 "Hg15 mi
7:00 PM66 °FBroken clouds.14 mph46%29.94 "Hg15 mi
6:00 PM66 °FBroken clouds.10 mph46%29.94 "Hg15 mi
5:00 PM68 °FBroken clouds.13 mph43%29.94 "Hg15 mi
4:00 PM70 °FPartly sunny.9 mph43%29.95 "Hg15 mi
Weather by CustomWeather, © 2014

See weather overviewHow to use our weather pages